Vertical_Velocity
-1 -1 -1 -1 -2 -1 -1 -1 -1 -1 -1 -1 -1 -2 -1 -0 -1 -2 -1 -1 -1 -0 -0 0 -1 -1 -1 -1 8 -2 -1 -2 -1 -0 -2 1 4 4 1 2 4 8 -3 0 -5 -2 -1
-1 -0 0 -1 -1 -1 -1 -2 -1 -0 -0 -1 -0 -1 -1 -2 -1 -1 -1 -0 -0 -0 -1 -0 0 -0 -2 3 1 -1 -0 -0 -1 -2 1 -2 -2 6 0 -1 7 -2 2 -3 -5 -6 -1
-0 0 -1 -1 -0 -0 0 0 0 -1 -1 -1 -1 -1 0 -0 -1 -1 -0 -2 -1 -2 -1 -1 -1 -1 -1 -0 -1 1 -1 -1 1 0 -0 6 2 2 5 -2 3 -1 2 -2 -4 -8 -5
0 -0 -1 -0 -1 -1 -1 -1 -1 -1 -1 -1 -1 -2 -1 -1 -1 -1 -1 -1 -0 -0 -1 -0 0 -3 4 -0 -3 3 2 6 -5 -2 -1 -3 -4 -0 8 -4 -9 6 10 5 -6 0 -12
-1 -1 0 -1 -1 -1 -1 -1 -1 -1 -1 -1 -1 -1 -1 -1 -1 -1 -2 1 1 -1 -2 -0 -5 -0 6 1 -1 -2 -1 -0 -1 -4 -2 2 0 -2 2 5 -0 2 -1 2 -5 -1 0
-0 -0 -1 -1 -1 1 -0 -0 -0 -0 -1 -2 -2 -2 -2 -1 -1 -1 -2 -1 -0 1 -4 -1 -2 2 -5 1 -2 -2 2 -3 -1 -0 -3 3 3 2 2 4 -4 -2 2 -4 1 -11 1
-1 -1 -1 -1 -1 -2 -1 -1 -1 -1 -1 -1 -2 -2 -2 -1 -2 -2 -4 -8 -5 -2 -5 -0 1 5 -2 -1 -5 3 -7 -5 2 3 1 -0 4 -1 -3 1 3 5 5 3 -10 -8 13
-1 -2 -2 -0 -0 0 -1 -1 -1 -2 -2 -2 -2 -2 -3 -3 -1 -1 0 -6 -0 1 1 -2 -2 5 -0 -0 6 1 -10 5 5 0 -1 -2 -0 -7 1 1 5 1 4 -11 -13 -4 22
-0 -1 -2 -1 -0 -1 -1 -1 -1 -1 -1 -1 -1 -1 -0 -2 -2 -6 -2 -2 -1 2 4 3 -3 -3 -3 -4 4 -1 -6 -4 4 2 -0 7 -8 1 4 -3 3 -4 7 -2 16 -7 -9
-2 -1 -1 -1 -2 -2 -1 -1 -1 -1 -0 -1 -1 -2 -2 0 -3 -1 -1 1 0 1 4 5 4 -3 -5 3 7 1 -0 5 -3 5 1 2 -3 4 -2 2 5 1 3 5 1 5 1
1 -2 -2 -2 -0 -1 -2 -2 -1 -2 -2 -2 -2 -1 -3 -2 1 -2 0 1 -1 -1 -3 1 2 -2 0 -10 -0 10 9 -11 3 1 4 -17 -2 -3 -1 11 4 5 4 6 4 2 11
-3 0 -2 -1 -3 -1 -1 -2 -2 -2 -2 -1 -1 -3 -3 -2 -4 -0 1 -1 -1 0 -5 0 2 0 -8 -4 3 -8 -2 -2 15 2 -3 7 -2 -2 13 1 5 4 -6 -5 -0 4 5
1 -1 -1 -2 -2 -2 -2 -2 -2 -2 -2 -1 -2 -2 -3 -1 -1 1 2 -4 -1 -1 -3 -0 0 -1 1 -2 -4 -5 -2 -8 -3 -5 -5 -8 2 -3 -5 -12 -16 -6 -5 -5 -5 -6 -3
-1 -1 -2 -1 -2 -1 0 -1 -2 -2 -1 0 -4 -4 -1 -2 0 0 -1 3 -5 2 2 0 0 -4 -2 0 -3 -3 -5 -1 -4 -5 1 4 -18 -2 -10 20 18 1 11 4 2 2 -5
2 1 0 -3 -2 -1 -3 -1 -0 -2 0 -2 -0 -1 -4 3 1 -1 -2 -6 9 3 5 2 -11 -1 1 -2 1 -3 1 2 4 3 6 3 -13 -16 6 1 22 -9 -1 3 8 -0 10
-0 -1 -0 -1 -2 -4 -4 -3 -4 0 -0 -4 -3 -1 -4 -4 -3 -5 -8 -1 1 2 1 -2 3 2 1 0 -6 -4 -2 7 1 3 2 -7 -4 0 -10 1 -5 -1 10 -3 -3 2 0
2 -1 -0 -3 -5 -3 -1 -3 -3 -1 -1 -1 -2 -0 -2 -2 -3 -7 -2 3 0 1 -1 1 1 -1 3 3 4 -1 4 -2 -1 -2 0 4 7 -18 -1 -1 4 -11 -7 -5 6 6 4
0 0 -2 -3 -1 -6 -3 -2 -4 -4 -1 -2 -3 1 -3 2 -12 1 -0 2 -0 -0 -6 1 -1 1 2 1 -0 -0 3 6 2 6 1 2 3 1 9 3 3 5 5 3 5 -4 -1
-5 -2 -0 -2 -2 0 -7 -5 -2 -5 -5 -1 -2 -0 -1 -5 -2 1 5 1 -2 -4 1 -1 0 1 -0 2 -0 0 -0 4 -2 0 4 -1 -4 -2 -21 -25 -8 -2 0 2 0 -0 6
-2 -1 -2 -2 -2 -2 -4 -3 -3 -1 -2 -0 -2 -0 -2 -13 -1 -0 0 2 2 -3 2 -2 1 -2 -3 -2 -1 -0 -2 -3 -4 1 2 -2 0 12 7 7 0 -3 -3 -1 -1 -3 3
0 -0 0 -1 -0 -6 -3 -3 -1 1 -7 0 -4 1 3 1 -3 -1 -3 -1 -0 -1 -1 -2 -1 0 4 -0 -1 -0 -2 -5 -4 2 -5 4 2 2 -1 -0 -2 2 2 -0 -2 5 1
1 -1 -1 -2 -0 -5 -4 -5 -5 -5 -2 -20 -1 1 1 -1 -1 1 -0 3 -0 -1 1 1 -1 -0 2 3 5 1 4 1 4 -8 -0 -3 -5 1 -4 2 -1 -1 -0 -0 0 -0 -2
-0 1 -0 0 -4 -4 -5 -4 -5 -3 -2 -7 -3 -2 -0 -1 0 -2 2 3 3 -0 3 2 3 3 -1 5 3 -0 1 1 2 2 -0 2 2 -1 -3 1 3 -3 5 2 -1 -0 3
-2 0 1 1 -1 -1 -6 -2 -1 -1 -8 -3 -3 -3 1 3 -4 2 -1 -1 -0 1 2 1 -2 2 0 -6 -4 -0 3 2 0 0 2 1 0 1 -1 -5 -0 8 1 4 7 3 -0
-3 1 1 0 -1 -2 -2 -2 -3 -5 -6 -6 -6 -3 -2 1 -3 2 -1 0 3 2 -1 -2 -2 3 -5 2 1 -0 4 4 -1 1 -1 1 0 -3 3 2 4 -1 -3 4 12 -5 4
-2 -4 -0 -1 -1 1 -3 -1 -3 -3 -4 -4 -5 -3 -1 -4 4 2 -2 -2 2 0 4 3 -3 -1 0 2 1 1 1 2 -3 -6 -1 -3 -0 0 -2 3 3 10 -1 -2 6 4 4
-2 -8 -2 -2 -2 -2 -3 -1 -2 -4 -4 -2 -6 -5 -1 -7 -2 -0 -0 2 -1 -1 0 -3 -4 -10 3 0 0 -0 0 2 -2 1 -0 -2 -3 3 -1 0 4 5 4 -7 -9 2 -0
-0 -7 0 -3 -4 1 1 -1 -2 -2 -4 -3 -7 -6 -4 -3 2 3 -1 -1 1 0 0 -3 -3 -13 -4 -4 -1 1 -1 -1 -1 1 2 -0 0 1 -2 1 -2 2 -12 -7 10 -7 3
-0 -6 3 1 -4 -1 -3 -2 0 -1 -6 -3 -4 -1 1 -7 -2 -2 1 -1 -2 -1 -2 -1 -1 2 1 -2 -3 -2 -2 -1 1 1 -1 -4 -6 -4 1 -0 6 3 10 7 4 6 -4
Height
1559 1557 1556 1554 1552 1550 1547 1545 1542 1538 1535 1531 1526 1523 1518 1514 1510 1506 1503 1499 1496 1493 1489 1486 1485 1484 1485 1487 1488 1486 1485 1486 1486 1486 1487 1490 1490 1488 1486 1480 1476 1472 1469 1468 1468 1467 1464
1560 1559 1557 1555 1553 1551 1548 1545 1541 1538 1534 1530 1526 1521 1517 1513 1509 1505 1501 1497 1494 1490 1487 1484 1482 1482 1484 1487 1486 1485 1485 1485 1485 1486 1487 1488 1488 1487 1483 1480 1479 1471 1468 1465 1465 1462 1460
1561 1559 1558 1556 1553 1551 1548 1545 1541 1537 1533 1529 1525 1520 1516 1512 1508 1503 1499 1495 1491 1488 1486 1484 1483 1483 1485 1488 1486 1485 1485 1485 1485 1486 1486 1487 1486 1487 1483 1479 1474 1471 1469 1464 1462 1457 1452
1561 1560 1558 1556 1554 1551 1548 1545 1541 1537 1532 1528 1524 1519 1514 1510 1506 1502 1498 1494 1490 1487 1486 1485 1484 1483 1487 1487 1486 1487 1487 1486 1485 1485 1485 1484 1484 1484 1482 1478 1473 1472 1468 1462 1448 1445 1444
1562 1561 1559 1556 1554 1551 1548 1544 1540 1536 1532 1527 1522 1518 1513 1509 1505 1501 1496 1492 1489 1487 1486 1485 1485 1485 1489 1488 1488 1486 1486 1486 1485 1484 1483 1483 1482 1480 1478 1476 1476 1467 1464 1453 1442 1438 1439
1562 1560 1559 1557 1554 1552 1548 1544 1540 1535 1531 1526 1521 1517 1512 1508 1504 1499 1496 1491 1489 1488 1487 1486 1487 1490 1491 1491 1488 1486 1486 1485 1485 1483 1482 1481 1480 1478 1475 1475 1477 1467 1454 1444 1441 1440 1436
1562 1561 1559 1557 1554 1551 1548 1544 1539 1535 1530 1525 1521 1517 1512 1507 1503 1499 1496 1491 1493 1492 1491 1492 1493 1491 1493 1491 1489 1488 1486 1485 1484 1484 1482 1476 1478 1477 1468 1463 1456 1454 1453 1447 1438 1438 1439
1562 1561 1559 1557 1554 1551 1548 1543 1539 1534 1529 1524 1520 1515 1511 1507 1503 1500 1497 1495 1498 1500 1496 1494 1493 1493 1492 1490 1489 1487 1486 1485 1483 1480 1477 1476 1473 1467 1462 1459 1457 1457 1455 1446 1436 1434 1434
1563 1561 1559 1557 1555 1551 1547 1543 1538 1533 1529 1524 1519 1514 1510 1506 1502 1499 1497 1498 1497 1497 1497 1495 1494 1494 1495 1494 1492 1492 1489 1486 1481 1478 1475 1475 1468 1466 1463 1462 1458 1456 1454 1446 1444 1436 1432
1563 1561 1559 1557 1554 1550 1546 1542 1537 1533 1528 1523 1518 1513 1510 1506 1504 1500 1498 1497 1496 1496 1494 1496 1495 1497 1497 1493 1495 1494 1491 1492 1485 1481 1480 1474 1467 1469 1467 1467 1472 1467 1465 1457 1448 1447 1446
1562 1560 1558 1557 1554 1550 1546 1541 1536 1532 1527 1522 1517 1513 1509 1505 1504 1502 1501 1497 1495 1497 1498 1499 1498 1499 1499 1500 1501 1495 1494 1493 1493 1491 1492 1486 1480 1479 1475 1485 1481 1476 1467 1463 1457 1452 1448
1563 1561 1559 1556 1553 1550 1545 1541 1536 1531 1526 1521 1517 1513 1510 1507 1504 1503 1499 1496 1497 1498 1501 1502 1500 1501 1500 1500 1500 1501 1499 1496 1497 1493 1488 1492 1484 1487 1492 1490 1485 1482 1474 1466 1452 1447 1450
1562 1561 1559 1555 1552 1549 1545 1540 1535 1530 1526 1521 1517 1513 1510 1508 1506 1502 1498 1497 1499 1497 1498 1506 1507 1505 1503 1508 1502 1505 1503 1503 1512 1509 1509 1498 1483 1491 1489 1489 1482 1484 1481 1479 1481 1474 1448
1562 1560 1558 1555 1551 1548 1544 1539 1534 1529 1525 1520 1517 1514 1512 1508 1505 1502 1499 1499 1503 1506 1517 1518 1514 1511 1512 1517 1514 1512 1511 1512 1519 1522 1522 1516 1504 1504 1504 1503 1495 1489 1486 1494 1500 1482 1473
1561 1559 1557 1554 1551 1547 1543 1538 1533 1528 1523 1519 1515 1514 1512 1510 1507 1504 1503 1513 1535 1538 1535 1529 1518 1510 1508 1513 1522 1520 1519 1524 1528 1528 1534 1524 1517 1513 1506 1499 1494 1486 1489 1479 1479 1477 1473
1560 1559 1556 1553 1550 1547 1542 1537 1532 1528 1523 1518 1515 1514 1513 1511 1508 1507 1508 1522 1531 1539 1537 1531 1524 1522 1526 1527 1530 1530 1523 1531 1533 1533 1534 1530 1522 1511 1503 1496 1493 1496 1491 1483 1477 1473 1460
1559 1558 1555 1553 1550 1546 1542 1537 1532 1528 1523 1518 1514 1514 1514 1510 1508 1507 1520 1532 1535 1540 1540 1539 1538 1536 1534 1535 1535 1532 1529 1532 1533 1532 1533 1528 1526 1519 1505 1498 1504 1502 1494 1489 1482 1475 1473
1558 1557 1555 1552 1549 1546 1541 1536 1531 1527 1524 1519 1515 1514 1514 1511 1513 1518 1532 1537 1540 1539 1540 1539 1538 1538 1541 1540 1538 1533 1537 1537 1538 1536 1533 1530 1527 1523 1513 1503 1501 1501 1505 1498 1491 1486 1476
1558 1557 1555 1553 1550 1545 1540 1536 1532 1528 1524 1519 1518 1517 1516 1513 1521 1525 1534 1537 1541 1541 1542 1542 1541 1542 1542 1541 1542 1537 1538 1538 1537 1537 1536 1533 1530 1528 1517 1510 1509 1512 1507 1501 1488 1489 1494
1556 1556 1555 1552 1549 1545 1541 1537 1533 1529 1526 1522 1521 1521 1521 1520 1527 1527 1532 1537 1539 1544 1544 1545 1544 1543 1544 1543 1539 1539 1539 1538 1537 1537 1533 1531 1531 1528 1535 1526 1520 1518 1515 1508 1506 1511 1506
1555 1555 1553 1551 1547 1545 1541 1537 1534 1531 1528 1526 1526 1531 1531 1532 1533 1535 1536 1539 1542 1546 1546 1545 1542 1546 1546 1544 1541 1542 1541 1539 1536 1536 1534 1532 1534 1526 1518 1525 1524 1522 1520 1518 1514 1518 1517
1554 1554 1553 1551 1548 1544 1542 1539 1536 1533 1530 1528 1530 1532 1533 1535 1534 1534 1536 1542 1544 1546 1548 1546 1547 1547 1544 1542 1545 1547 1544 1541 1539 1538 1536 1532 1532 1524 1517 1519 1522 1526 1525 1524 1519 1515 1517
1553 1553 1551 1550 1547 1544 1542 1540 1538 1535 1531 1530 1533 1532 1533 1539 1537 1536 1545 1545 1546 1547 1547 1548 1549 1547 1543 1545 1544 1542 1541 1539 1539 1539 1538 1534 1533 1527 1522 1511 1509 1521 1532 1529 1526 1518 1520
1552 1552 1552 1551 1547 1544 1543 1541 1539 1536 1534 1533 1534 1534 1534 1539 1540 1543 1547 1547 1548 1549 1548 1548 1548 1547 1545 1542 1539 1535 1535 1536 1537 1536 1535 1535 1534 1526 1526 1517 1522 1534 1532 1529 1530 1524 1527
1548 1551 1552 1551 1548 1545 1543 1542 1540 1538 1536 1534 1535 1535 1535 1539 1542 1545 1547 1546 1545 1546 1549 1549 1549 1547 1543 1539 1536 1530 1530 1537 1533 1534 1536 1533 1537 1536 1530 1529 1527 1529 1533 1533 1531 1528 1530
1545 1548 1551 1551 1549 1546 1545 1543 1542 1540 1538 1537 1536 1538 1537 1540 1549 1548 1549 1550 1549 1548 1548 1549 1548 1546 1543 1539 1535 1536 1539 1538 1538 1538 1535 1535 1534 1538 1534 1534 1525 1543 1537 1532 1521 1521 1528
1543 1545 1549 1549 1549 1547 1546 1545 1543 1542 1541 1539 1538 1540 1540 1543 1549 1549 1551 1554 1554 1551 1550 1549 1550 1547 1544 1542 1536 1540 1541 1541 1548 1544 1544 1543 1543 1539 1541 1545 1537 1540 1535 1527 1530 1537 1529
1541 1544 1546 1548 1549 1548 1547 1545 1544 1542 1542 1541 1540 1541 1541 1545 1550 1551 1551 1554 1554 1554 1555 1554 1552 1552 1549 1549 1550 1549 1550 1550 1552 1549 1553 1558 1560 1549 1547 1538 1542 1541 1538 1543 1545 1537 1533
1541 1546 1547 1545 1547 1547 1547 1546 1544 1542 1542 1543 1543 1543 1543 1544 1549 1552 1552 1554 1555 1556 1556 1556 1557 1556 1555 1555 1554 1553 1553 1549 1549 1551 1551 1561 1564 1566 1561 1550 1548 1546 1544 1545 1541 1537 1531